Location: D�derode
(51.8092°N, 10.1065°E)
Time: 01:49:44
(UTC+00:00)

Cosmos 1812 - Pass Details

Date: 25 April 2021
Orbit: 516 x 519 km, 82.5° (Epoch: 10 May)

Event Time Altitude Azimuth Distance (km) Brightness Sun altitude
Exits shadow 23:04:57 56° 328° (NNW) 624 3.2 -24.6°
Drops below altitude 10° 23:08:16 10° 6° (N) 1,767 6.4 -24.7°
Sets 23:10:26 0° 9° (N) 2,660 7.6 -24.7°
